AALTO-1

Last updated on Mon Sep 02 2024 00:03:40 GMT+0000 (Coordinated Universal Time)

1 42775U 17036L 24245.29764800 .13343114 24078-5 23541-3 0 9999 2 42775 97.0675 277.5924 0011337 248.5174 111.4922 16.47090026401159

Satellite not in orbit

AALTO-1